Hourly Data Report for November 05, 2017

TORONTO CITY
ONTARIO

43°40'00.000" N
79°24'00.000" W
112.50 m
6158355
71508
XTO

Download Data

Hourly Data (November 2017)
Hourly Data Report for November 5, 2017
TIME
LST
Temp Definition
°C
Dew Point Definition
°C
Rel Hum Definition
%
Precip. Amount Definition
mm

Wind Dir Definition
10's deg

Wind Spd Definition
km/h
Visibility Definition
km
Stn Press Definition
kPa
Hmdx Definition


Wind Chill Definition


Weather Definition


00:00 6.9 5.0 88 0.2 LegendMM LegendMM   100.31     LegendNANA
01:00 7.6 5.7 88 0.0 LegendMM LegendMM   100.21     LegendNANA
02:00 7.9 6.5 91 6.5 LegendMM LegendMM   100.18     LegendNANA
03:00 8.2 6.8 91 0.7 LegendMM LegendMM   100.14     LegendNANA
04:00 8.8 7.3 91 0.0 LegendMM LegendMM   100.08     LegendNANA
05:00 9.6 7.8 89 0.0 LegendMM LegendMM   100.02     LegendNANA
06:00 9.7 8.2 90 0.2 LegendMM LegendMM   99.96     LegendNANA
07:00 10.0 8.7 92 0.0 LegendMM LegendMM   99.90     LegendNANA
08:00 10.4 9.3 92 0.0 LegendMM LegendMM   99.85     LegendNANA
09:00 10.7 9.5 93 1.3 LegendMM LegendMM   99.80     LegendNANA
10:00 11.0 9.7 92 1.2 LegendMM LegendMM   99.72     LegendNANA
11:00 11.0 9.8 92 2.2 LegendMM LegendMM   99.67     LegendNANA
12:00 12.2 11.0 93 0.2 LegendMM LegendMM   99.56     LegendNANA
13:00 12.8 11.6 92 0.8 LegendMM LegendMM   99.50     LegendNANA
14:00 13.4 12.0 91 0.0 LegendMM LegendMM   99.45     LegendNANA
15:00 13.9 12.4 90 0.0 LegendMM LegendMM   99.40     LegendNANA
16:00 13.9 12.1 89 0.0 LegendMM LegendMM   99.39     LegendNANA
17:00 14.5 12.9 90 1.0 LegendMM LegendMM   99.29     LegendNANA
18:00 14.4 12.7 90 0.5 LegendMM LegendMM   99.25     LegendNANA
19:00 14.4 12.9 91 0.0 LegendMM LegendMM   99.29     LegendNANA
20:00 14.6 13.0 90 0.0 LegendMM LegendMM   99.23     LegendNANA
21:00 14.5 12.7 89 0.0 LegendMM LegendMM   99.21     LegendNANA
22:00 14.7 13.1 90 0.3 LegendMM LegendMM   99.26     LegendNANA
23:00 14.2 12.8 91 0.5 LegendMM LegendMM   99.26     LegendNANA

Notes on Data Quality.

Legend

  • E = Estimated
  • M = Missing
  • NA = Not Available*
  • [empty] = Indicates an unobserved value
Date modified: